Flag for Falkland Islands Weather past 2 weeks in Stanley, Falkland Islands

Now
41 °F

Low clouds.


Feels Like: 32 °F
Forecast: N/A
Wind: 20 mph from West

Location: Mount Pleasant Airport

Current Time: Aug 28, 2014 at 8:18:12 PM

Latest Report: Aug 28, 2014 at 7:50 PM


Visibility: N/A

Pressure: 29.62 "Hg

Humidity: 100%

Dew point: 41 °F

Location of StanleyLocation

Historic Weather in Stanley — Graph

°F

Stanley temperature yesterday

Maximum temperature yesterday: 39 °F (at 3:50 PM)
Minimum temperature yesterday: 32 °F (at 7:50 AM)
Average temperature yesterday: 36 °F

Past Weeks' High & Low Weather Summary

 TemperatureHumidityPressure
High48 °F (Aug 15, 11:50 AM)100% (Aug 13, 7:50 PM)30.39 "Hg (Aug 13, 7:50 PM)
Low27 °F (Aug 14, 7:50 AM)53% (Aug 17, 3:50 AM)28.94 "Hg (Aug 18, 10:50 AM)
Average37 °F87%29.85 "Hg
* Reported Aug 13 6:50 PM — Aug 28 6:50 PM, Stanley, Weather by CustomWeather, © 2014

Note: Actual official high and low records may vary slightly from our data, if they occured in-between our weather recording intervals... More about our weather records

Advertising

Stanley weather history for previous 24 hours

 ConditionsComfort  
Time TempWeatherWind HumidityBarometerVisibility
6:50 PM
Aug 28
41 °FLight rain. Low clouds.14 mph100%29.62 "Hg4 mi
5:50 PM43 °FLight rain. Low clouds.15 mph93%29.62 "Hg5 mi
4:50 PM43 °FLight rain. Mostly cloudy.15 mph93%29.62 "HgN/A
3:50 PM43 °FMostly cloudy.17 mph93%29.59 "HgN/A
2:50 PM45 °FPartly sunny.21 mph81%29.62 "HgN/A
1:50 PM43 °FMore clouds than sun.17 mph87%29.65 "HgN/A
12:50 PM41 °FMore clouds than sun.17 mph87%29.68 "HgN/A
11:50 AM41 °FLight rain. Broken clouds.13 mph87%29.71 "HgN/A
10:50 AM39 °FLight rain. More clouds than sun.18 mph87%29.74 "HgN/A
9:50 AM39 °FMore clouds than sun.16 mph87%29.77 "HgN/A
8:50 AM39 °FBroken clouds.18 mph87%29.77 "HgN/A
7:50 AM39 °FMostly cloudy.17 mph93%29.80 "HgN/A
6:50 AM37 °FPassing clouds.16 mph93%29.83 "HgN/A
5:50 AM39 °FPartly cloudy.13 mph81%29.86 "HgN/A
4:50 AM39 °FPassing clouds.18 mph87%29.86 "HgN/A
3:50 AM37 °FPassing clouds.16 mph93%29.89 "HgN/A
2:50 AM36 °FClear.9 mph93%29.92 "Hg10 mi
1:50 AM36 °FClear.6 mph93%29.92 "Hg10 mi
12:50 AM36 °FPartly cloudy.13 mph93%29.95 "HgN/A
11:50 PM
Aug 27
36 °FPassing clouds.13 mph93%29.98 "HgN/A
10:50 PM36 °FPartly cloudy.10 mph93%29.98 "HgN/A
9:50 PM37 °FDrizzle. Low clouds.9 mph100%30.01 "Hg2 mi
8:50 PM37 °FPassing clouds.6 mph93%30.01 "HgN/A
Weather by CustomWeather, © 2014

See weather overviewHow to use our weather pages